Location: Newark
(32.8369°N, 35.2736°E)
Time: 15:56:36
(UTC+00:00)

LightSail 2 - Pass Details

Date: 28 November 2019
Orbit: 696 x 730 km, 24.0° (Epoch: 12 December)

Event Time Altitude Azimuth Distance (km) Brightness Sun altitude
Rises 17:12:33 0° 234° (SW) 3,064 9.2 -33.1°
Reaches altitude 10° 17:15:24 10° 219° (SW) 2,143 8.1 -33.7°
Enters shadow 17:16:43 16° 207° (SSW) 1,797 7.5 -33.9°
